Year,Month,Day,Hour,Minute,Value (Times are PST for windgust in km/hr)
2010,01,19,00,00,9.60
2010,01,19,00,01,9.60
2010,01,19,00,02,6.40
2010,01,19,00,03,11.30
2010,01,19,00,04,11.30
2010,01,19,00,05,9.60
2010,01,19,00,06,8.10
2010,01,19,00,07,16.10
2010,01,19,00,08,19.30
2010,01,19,00,09,8.10
2010,01,19,00,10,11.30
2010,01,19,00,11,8.10
2010,01,19,00,12,6.40
2010,01,19,00,13,9.60
2010,01,19,00,14,16.10
2010,01,19,00,15,6.40
2010,01,19,00,16,14.50
2010,01,19,00,17,20.90
2010,01,19,00,18,14.50
2010,01,19,00,19,16.10
2010,01,19,00,20,14.50
2010,01,19,00,21,12.90
2010,01,19,00,22,14.50
2010,01,19,00,23,9.60
2010,01,19,00,24,22.50
2010,01,19,00,25,11.30
2010,01,19,00,26,9.60
2010,01,19,00,27,9.60
2010,01,19,00,28,11.30
2010,01,19,00,29,12.90
2010,01,19,00,30,8.10
2010,01,19,00,31,3.20
2010,01,19,00,32,11.30
2010,01,19,00,33,3.20
2010,01,19,00,34,4.80
2010,01,19,00,35,8.10
2010,01,19,00,36,8.10
2010,01,19,00,37,9.60
2010,01,19,00,38,6.40
2010,01,19,00,39,4.80
2010,01,19,00,40,3.20
2010,01,19,00,41,8.10
2010,01,19,00,42,6.40
2010,01,19,00,43,4.80
2010,01,19,00,44,6.40
2010,01,19,00,45,9.60
2010,01,19,00,46,16.10
2010,01,19,00,47,9.60
2010,01,19,00,48,6.40
2010,01,19,00,49,6.40
2010,01,19,00,50,11.30
2010,01,19,00,51,6.40
2010,01,19,00,52,11.30
2010,01,19,00,53,14.50
2010,01,19,00,54,11.30
2010,01,19,00,55,9.60
2010,01,19,00,56,4.80
2010,01,19,00,57,9.60
2010,01,19,00,58,6.40
2010,01,19,00,59,8.10
2010,01,19,01,00,8.10
2010,01,19,01,01,8.10
2010,01,19,01,02,8.10
2010,01,19,01,03,11.30
2010,01,19,01,04,8.10
2010,01,19,01,05,9.60
2010,01,19,01,06,16.10
2010,01,19,01,07,19.30
2010,01,19,01,08,9.60
2010,01,19,01,09,11.30
2010,01,19,01,10,14.50
2010,01,19,01,11,16.10
2010,01,19,01,12,17.70
2010,01,19,01,13,16.10
2010,01,19,01,14,16.10
2010,01,19,01,15,12.90
2010,01,19,01,16,16.10
2010,01,19,01,17,8.10
2010,01,19,01,18,16.10
2010,01,19,01,19,9.60
2010,01,19,01,20,8.10
2010,01,19,01,21,16.10
2010,01,19,01,22,16.10
2010,01,19,01,23,14.50
2010,01,19,01,24,20.90
2010,01,19,01,25,11.30
2010,01,19,01,26,11.30
2010,01,19,01,27,14.50
2010,01,19,01,28,16.10
2010,01,19,01,29,9.60
2010,01,19,01,30,6.40
2010,01,19,01,31,11.30
2010,01,19,01,32,11.30
2010,01,19,01,33,9.60
2010,01,19,01,34,8.10
2010,01,19,01,35,11.30
2010,01,19,01,36,8.10
2010,01,19,01,37,14.50
2010,01,19,01,38,17.70
2010,01,19,01,39,24.20
2010,01,19,01,40,12.90
2010,01,19,01,41,16.10
2010,01,19,01,42,14.50
2010,01,19,01,43,14.50
2010,01,19,01,44,14.50
2010,01,19,01,45,12.90
2010,01,19,01,46,6.40
2010,01,19,01,47,17.70
2010,01,19,01,48,9.60
2010,01,19,01,49,11.30
2010,01,19,01,50,8.10
2010,01,19,01,51,8.10
2010,01,19,01,52,9.60
2010,01,19,01,53,14.50
2010,01,19,01,54,17.70
2010,01,19,01,55,8.10
2010,01,19,01,56,9.60
2010,01,19,01,57,17.70
2010,01,19,01,58,9.60
2010,01,19,01,59,12.90
2010,01,19,02,00,14.50
2010,01,19,02,01,9.60
2010,01,19,02,02,16.10
2010,01,19,02,03,11.30
2010,01,19,02,04,16.10
2010,01,19,02,05,12.90
2010,01,19,02,06,17.70
2010,01,19,02,07,9.60
2010,01,19,02,08,11.30
2010,01,19,02,09,14.50
2010,01,19,02,10,8.10
2010,01,19,02,11,9.60
2010,01,19,02,12,14.50
2010,01,19,02,13,8.10
2010,01,19,02,14,14.50
2010,01,19,02,15,11.30
2010,01,19,02,16,9.60
2010,01,19,02,17,8.10
2010,01,19,02,18,4.80
2010,01,19,02,19,8.10
2010,01,19,02,20,9.60
2010,01,19,02,21,9.60
2010,01,19,02,22,11.30
2010,01,19,02,23,16.10
2010,01,19,02,24,12.90
2010,01,19,02,25,12.90
2010,01,19,02,26,14.50
2010,01,19,02,27,4.80
2010,01,19,02,28,14.50
2010,01,19,02,29,8.10
2010,01,19,02,30,14.50
2010,01,19,02,31,8.10
2010,01,19,02,32,1.60
2010,01,19,02,33,1.60
2010,01,19,02,34,3.20
2010,01,19,02,35,4.80
2010,01,19,02,36,6.40
2010,01,19,02,37,6.40
2010,01,19,02,38,6.40
2010,01,19,02,39,6.40
2010,01,19,02,40,16.10
2010,01,19,02,41,8.10
2010,01,19,02,42,11.30
2010,01,19,02,43,4.80
2010,01,19,02,44,9.60
2010,01,19,02,45,9.60
2010,01,19,02,46,9.60
2010,01,19,02,47,16.10
2010,01,19,02,48,9.60
2010,01,19,02,49,11.30
2010,01,19,02,50,11.30
2010,01,19,02,51,20.90
2010,01,19,02,52,16.10
2010,01,19,02,53,20.90
2010,01,19,02,54,19.30
2010,01,19,02,55,20.90
2010,01,19,02,56,24.20
2010,01,19,02,57,19.30
2010,01,19,02,58,19.30
2010,01,19,02,59,16.10
2010,01,19,03,00,22.50
2010,01,19,03,01,16.10
2010,01,19,03,02,20.90
2010,01,19,03,03,20.90
2010,01,19,03,04,27.40
2010,01,19,03,05,19.30
2010,01,19,03,06,17.70
2010,01,19,03,07,17.70
2010,01,19,03,08,19.30
2010,01,19,03,09,17.70
2010,01,19,03,10,9.60
2010,01,19,03,11,16.10
2010,01,19,03,12,16.10
2010,01,19,03,13,8.10
2010,01,19,03,14,8.10
2010,01,19,03,15,3.20
2010,01,19,03,16,4.80
2010,01,19,03,17,27.40
2010,01,19,03,18,11.30
2010,01,19,03,19,9.60
2010,01,19,03,20,12.90
2010,01,19,03,21,12.90
2010,01,19,03,22,4.80
2010,01,19,03,23,4.80
2010,01,19,03,24,6.40
2010,01,19,03,25,8.10
2010,01,19,03,26,8.10
2010,01,19,03,27,6.40
2010,01,19,03,28,11.30
2010,01,19,03,29,14.50
2010,01,19,03,30,16.10
2010,01,19,03,31,14.50
2010,01,19,03,32,9.60
2010,01,19,03,33,12.90
2010,01,19,03,34,9.60
2010,01,19,03,35,14.50
2010,01,19,03,36,17.70
2010,01,19,03,37,9.60
2010,01,19,03,38,6.40
2010,01,19,03,39,14.50
2010,01,19,03,40,8.10
2010,01,19,03,41,6.40
2010,01,19,03,42,8.10
2010,01,19,03,43,6.40
2010,01,19,03,44,6.40
2010,01,19,03,45,9.60
2010,01,19,03,46,4.80
2010,01,19,03,47,8.10
2010,01,19,03,48,4.80
2010,01,19,03,49,4.80
2010,01,19,03,50,8.10
2010,01,19,03,51,11.30
2010,01,19,03,52,9.60
2010,01,19,03,53,6.40
2010,01,19,03,54,4.80
2010,01,19,03,55,4.80
2010,01,19,03,56,6.40
2010,01,19,03,57,4.80
2010,01,19,03,58,3.20
2010,01,19,03,59,8.10
2010,01,19,04,00,9.60
2010,01,19,04,01,9.60
2010,01,19,04,02,9.60
2010,01,19,04,03,11.30
2010,01,19,04,04,9.60
2010,01,19,04,05,11.30
2010,01,19,04,06,17.70
2010,01,19,04,07,14.50
2010,01,19,04,08,6.40
2010,01,19,04,09,14.50
2010,01,19,04,10,14.50
2010,01,19,04,11,9.60
2010,01,19,04,12,20.90
2010,01,19,04,13,16.10
2010,01,19,04,14,11.30
2010,01,19,04,15,11.30
2010,01,19,04,16,11.30
2010,01,19,04,17,6.40
2010,01,19,04,18,12.90
2010,01,19,04,19,11.30
2010,01,19,04,20,14.50
2010,01,19,04,21,9.60
2010,01,19,04,22,6.40
2010,01,19,04,23,6.40
2010,01,19,04,24,8.10
2010,01,19,04,25,9.60
2010,01,19,04,26,8.10
2010,01,19,04,27,8.10
2010,01,19,04,28,1.60
2010,01,19,04,29,3.20
2010,01,19,04,30,9.60
2010,01,19,04,31,8.10
2010,01,19,04,32,4.80
2010,01,19,04,33,4.80
2010,01,19,04,34,6.40
2010,01,19,04,35,6.40
2010,01,19,04,36,3.20
2010,01,19,04,37,6.40
2010,01,19,04,38,6.40
2010,01,19,04,39,11.30
2010,01,19,04,40,6.40
2010,01,19,04,41,4.80
2010,01,19,04,42,4.80
2010,01,19,04,43,11.30
2010,01,19,04,44,8.10
2010,01,19,04,45,8.10
2010,01,19,04,46,3.20
2010,01,19,04,47,4.80
2010,01,19,04,48,9.60
2010,01,19,04,49,4.80
2010,01,19,04,50,6.40
2010,01,19,04,51,8.10
2010,01,19,04,52,9.60
2010,01,19,04,53,8.10
2010,01,19,04,54,8.10
2010,01,19,04,55,9.60
2010,01,19,04,56,11.30
2010,01,19,04,57,11.30
2010,01,19,04,58,11.30
2010,01,19,04,59,8.10
2010,01,19,05,00,9.60
2010,01,19,05,01,4.80
2010,01,19,05,02,8.10
2010,01,19,05,03,6.40
2010,01,19,05,04,6.40
2010,01,19,05,05,6.40
2010,01,19,05,06,4.80
2010,01,19,05,07,8.10
2010,01,19,05,08,6.40
2010,01,19,05,09,8.10
2010,01,19,05,10,6.40
2010,01,19,05,11,6.40
2010,01,19,05,12,3.20
2010,01,19,05,13,6.40
2010,01,19,05,14,9.60
2010,01,19,05,15,16.10
2010,01,19,05,16,14.50
2010,01,19,05,17,9.60
2010,01,19,05,18,8.10
2010,01,19,05,19,8.10
2010,01,19,05,20,6.40
2010,01,19,05,21,3.20
2010,01,19,05,22,8.10
2010,01,19,05,23,6.40
2010,01,19,05,24,1.60
2010,01,19,05,25,3.20
2010,01,19,05,26,8.10
2010,01,19,05,27,8.10
2010,01,19,05,28,4.80
2010,01,19,05,29,3.20
2010,01,19,05,30,8.10
2010,01,19,05,31,17.70
2010,01,19,05,32,16.10
2010,01,19,05,33,14.50
2010,01,19,05,34,11.30
2010,01,19,05,35,20.90
2010,01,19,05,36,11.30
2010,01,19,05,37,8.10
2010,01,19,05,38,24.20
2010,01,19,05,39,24.20
2010,01,19,05,40,20.90
2010,01,19,05,41,41.80
2010,01,19,05,42,48.30
2010,01,19,05,43,29.00
2010,01,19,05,44,30.60
2010,01,19,05,45,32.20
2010,01,19,05,46,40.20
2010,01,19,05,47,25.70
2010,01,19,05,48,40.20
2010,01,19,05,49,29.00
2010,01,19,05,50,17.70
2010,01,19,05,51,24.20
2010,01,19,05,52,17.70
2010,01,19,05,53,20.90
2010,01,19,05,54,22.50
2010,01,19,05,55,22.50
2010,01,19,05,56,22.50
2010,01,19,05,57,19.30
2010,01,19,05,58,29.00
2010,01,19,05,59,19.30
2010,01,19,06,00,19.30
2010,01,19,06,01,22.50
2010,01,19,06,02,9.60
2010,01,19,06,03,6.40
2010,01,19,06,04,11.30
2010,01,19,06,05,20.90
2010,01,19,06,06,25.70
2010,01,19,06,07,25.70
2010,01,19,06,08,16.10
2010,01,19,06,09,8.10
2010,01,19,06,10,22.50
2010,01,19,06,11,17.70
2010,01,19,06,12,16.10
2010,01,19,06,13,9.60
2010,01,19,06,14,9.60
2010,01,19,06,15,25.70
2010,01,19,06,16,24.20
2010,01,19,06,17,17.70
2010,01,19,06,18,19.30
2010,01,19,06,19,22.50
2010,01,19,06,20,20.90
2010,01,19,06,21,20.90
2010,01,19,06,22,16.10
2010,01,19,06,23,17.70
2010,01,19,06,24,22.50
2010,01,19,06,25,32.20
2010,01,19,06,26,24.20
2010,01,19,06,27,27.40
2010,01,19,06,28,24.20
2010,01,19,06,29,20.90
2010,01,19,06,30,30.60
2010,01,19,06,31,22.50
2010,01,19,06,32,20.90
2010,01,19,06,33,25.70
2010,01,19,06,34,27.40
2010,01,19,06,35,22.50
2010,01,19,06,36,19.30
2010,01,19,06,37,19.30
2010,01,19,06,38,24.20
2010,01,19,06,39,19.30
2010,01,19,06,40,24.20
2010,01,19,06,41,20.90
2010,01,19,06,42,25.70
2010,01,19,06,43,30.60
2010,01,19,06,44,20.90
2010,01,19,06,45,32.20
2010,01,19,06,46,27.40
2010,01,19,06,47,19.30
2010,01,19,06,48,20.90
2010,01,19,06,49,17.70
2010,01,19,06,50,22.50
2010,01,19,06,51,22.50
2010,01,19,06,52,16.10
2010,01,19,06,53,25.70
2010,01,19,06,54,29.00
2010,01,19,06,55,19.30
2010,01,19,06,56,33.80
2010,01,19,06,57,38.60
2010,01,19,06,58,25.70
2010,01,19,06,59,30.60
2010,01,19,07,00,24.20
2010,01,19,07,01,37.00
2010,01,19,07,02,32.20
2010,01,19,07,03,22.50
2010,01,19,07,04,24.20
2010,01,19,07,05,29.00
2010,01,19,07,06,27.40
2010,01,19,07,07,19.30
2010,01,19,07,08,19.30
2010,01,19,07,09,33.80
2010,01,19,07,10,19.30
2010,01,19,07,11,17.70
2010,01,19,07,12,22.50
2010,01,19,07,13,22.50
2010,01,19,07,14,22.50
2010,01,19,07,15,17.70
2010,01,19,07,16,11.30
2010,01,19,07,17,24.20
2010,01,19,07,18,30.60
2010,01,19,07,19,25.70
2010,01,19,07,20,30.60
2010,01,19,07,21,24.20
2010,01,19,07,22,32.20
2010,01,19,07,23,29.00
2010,01,19,07,24,32.20
2010,01,19,07,25,35.40
2010,01,19,07,26,27.40
2010,01,19,07,27,22.50
2010,01,19,07,28,19.30
2010,01,19,07,29,27.40
2010,01,19,07,30,29.00
2010,01,19,07,31,35.40
2010,01,19,07,32,27.40
2010,01,19,07,33,29.00
2010,01,19,07,34,24.20
2010,01,19,07,35,14.50
2010,01,19,07,36,33.80
2010,01,19,07,37,27.40
2010,01,19,07,38,41.80
2010,01,19,07,39,16.10
2010,01,19,07,40,16.10
2010,01,19,07,41,19.30
2010,01,19,07,42,25.70
2010,01,19,07,43,16.10
2010,01,19,07,44,20.90
2010,01,19,07,45,24.20
2010,01,19,07,46,22.50
2010,01,19,07,47,17.70
2010,01,19,07,48,14.50
2010,01,19,07,49,22.50
2010,01,19,07,50,20.90
2010,01,19,07,51,40.20
2010,01,19,07,52,35.40
2010,01,19,07,53,32.20
2010,01,19,07,54,27.40
2010,01,19,07,55,24.20
2010,01,19,07,56,32.20
2010,01,19,07,57,24.20
2010,01,19,07,58,25.70
2010,01,19,07,59,27.40
2010,01,19,08,00,25.70
2010,01,19,08,01,19.30
2010,01,19,08,02,19.30
2010,01,19,08,03,35.40
2010,01,19,08,04,30.60
2010,01,19,08,05,32.20
2010,01,19,08,06,33.80
2010,01,19,08,07,41.80
2010,01,19,08,08,19.30
2010,01,19,08,09,20.90
2010,01,19,08,10,33.80
2010,01,19,08,11,32.20
2010,01,19,08,12,30.60
2010,01,19,08,13,19.30
2010,01,19,08,14,37.00
2010,01,19,08,15,29.00
2010,01,19,08,16,32.20
2010,01,19,08,17,25.70
2010,01,19,08,18,30.60
2010,01,19,08,19,30.60
2010,01,19,08,20,25.70
2010,01,19,08,21,24.20
2010,01,19,08,22,20.90
2010,01,19,08,23,19.30
2010,01,19,08,24,20.90
2010,01,19,08,25,17.70
2010,01,19,08,26,25.70
2010,01,19,08,27,22.50
2010,01,19,08,28,20.90
2010,01,19,08,29,25.70
2010,01,19,08,30,32.20
2010,01,19,08,31,19.30
2010,01,19,08,32,14.50
2010,01,19,08,33,20.90
2010,01,19,08,34,27.40
2010,01,19,08,35,25.70
2010,01,19,08,36,17.70
2010,01,19,08,37,25.70
2010,01,19,08,38,17.70
2010,01,19,08,39,19.30
2010,01,19,08,40,25.70
2010,01,19,08,41,22.50
2010,01,19,08,42,16.10
2010,01,19,08,43,16.10
2010,01,19,08,44,16.10
2010,01,19,08,45,20.90
2010,01,19,08,46,20.90
2010,01,19,08,47,19.30
2010,01,19,08,48,11.30
2010,01,19,08,49,24.20
2010,01,19,08,50,16.10
2010,01,19,08,51,9.60
2010,01,19,08,52,19.30
2010,01,19,08,53,20.90
2010,01,19,08,54,22.50
2010,01,19,08,55,25.70
2010,01,19,08,56,22.50
2010,01,19,08,57,22.50
2010,01,19,08,58,17.70
2010,01,19,08,59,24.20
2010,01,19,09,00,19.30
2010,01,19,09,01,11.30
2010,01,19,09,02,14.50
2010,01,19,09,03,24.20
2010,01,19,09,04,25.70
2010,01,19,09,05,19.30
2010,01,19,09,06,17.70
2010,01,19,09,07,17.70
2010,01,19,09,08,19.30
2010,01,19,09,09,17.70
2010,01,19,09,10,17.70
2010,01,19,09,11,20.90
2010,01,19,09,12,14.50
2010,01,19,09,13,14.50
2010,01,19,09,14,14.50
2010,01,19,09,15,8.10
2010,01,19,09,16,19.30
2010,01,19,09,17,17.70
2010,01,19,09,18,19.30
2010,01,19,09,19,14.50
2010,01,19,09,20,25.70
2010,01,19,09,21,22.50
2010,01,19,09,22,11.30
2010,01,19,09,23,9.60
2010,01,19,09,24,17.70
2010,01,19,09,25,14.50
2010,01,19,09,26,9.60
2010,01,19,09,27,14.50
2010,01,19,09,28,17.70
2010,01,19,09,29,11.30
2010,01,19,09,30,14.50
2010,01,19,09,31,11.30
2010,01,19,09,32,11.30
2010,01,19,09,33,12.90
2010,01,19,09,34,9.60
2010,01,19,09,35,6.40
2010,01,19,09,36,9.60
2010,01,19,09,37,11.30
2010,01,19,09,38,6.40
2010,01,19,09,39,3.20
2010,01,19,09,40,14.50
2010,01,19,09,41,8.10
2010,01,19,09,42,11.30
2010,01,19,09,43,17.70
2010,01,19,09,44,22.50
2010,01,19,09,45,19.30
2010,01,19,09,46,19.30
2010,01,19,09,47,12.90
2010,01,19,09,48,11.30
2010,01,19,09,49,16.10
2010,01,19,09,50,20.90
2010,01,19,09,51,19.30
2010,01,19,09,52,16.10
2010,01,19,09,53,19.30
2010,01,19,09,54,11.30
2010,01,19,09,55,8.10
2010,01,19,09,56,11.30
2010,01,19,09,57,9.60
2010,01,19,09,58,11.30
2010,01,19,09,59,12.90
2010,01,19,10,00,11.30
2010,01,19,10,01,4.80
2010,01,19,10,02,1.60
2010,01,19,10,03,4.80
2010,01,19,10,04,4.80
2010,01,19,10,05,4.80
2010,01,19,10,06,6.40
2010,01,19,10,07,6.40
2010,01,19,10,08,6.40
2010,01,19,10,09,3.20
2010,01,19,10,10,8.10
2010,01,19,10,11,17.70
2010,01,19,10,12,8.10
2010,01,19,10,13,9.60
2010,01,19,10,14,9.60
2010,01,19,10,15,6.40
2010,01,19,10,16,14.50
2010,01,19,10,17,11.30
2010,01,19,10,18,16.10
2010,01,19,10,19,9.60
2010,01,19,10,20,4.80
2010,01,19,10,21,1.60
2010,01,19,10,22,9.60
2010,01,19,10,23,6.40
2010,01,19,10,24,14.50
2010,01,19,10,25,9.60
2010,01,19,10,26,9.60
2010,01,19,10,27,9.60
2010,01,19,10,28,16.10
2010,01,19,10,29,16.10
2010,01,19,10,30,16.10
2010,01,19,10,31,19.30
2010,01,19,10,32,11.30
2010,01,19,10,33,6.40
2010,01,19,10,34,6.40
2010,01,19,10,35,14.50
2010,01,19,10,36,9.60
2010,01,19,10,37,14.50
2010,01,19,10,38,22.50
2010,01,19,10,39,16.10
2010,01,19,10,40,19.30
2010,01,19,10,41,30.60
2010,01,19,10,42,24.20
2010,01,19,10,43,20.90
2010,01,19,10,44,12.90
2010,01,19,10,45,20.90
2010,01,19,10,46,22.50
2010,01,19,10,47,19.30
2010,01,19,10,48,20.90
2010,01,19,10,49,19.30
2010,01,19,10,50,17.70
2010,01,19,10,51,22.50
2010,01,19,10,52,24.20
2010,01,19,10,53,20.90
2010,01,19,10,54,16.10
2010,01,19,10,55,17.70
2010,01,19,10,56,16.10
2010,01,19,10,57,16.10
2010,01,19,10,58,17.70
2010,01,19,10,59,22.50
2010,01,19,11,00,19.30
2010,01,19,11,01,24.20
2010,01,19,11,02,17.70
2010,01,19,11,03,22.50
2010,01,19,11,04,25.70
2010,01,19,11,05,19.30
2010,01,19,11,06,19.30
2010,01,19,11,07,19.30
2010,01,19,11,08,29.00
2010,01,19,11,09,32.20
2010,01,19,11,10,35.40
2010,01,19,11,11,33.80
2010,01,19,11,12,29.00
2010,01,19,11,13,25.70
2010,01,19,11,14,19.30
2010,01,19,11,15,25.70
2010,01,19,11,16,33.80
2010,01,19,11,17,32.20
2010,01,19,11,18,33.80
2010,01,19,11,19,25.70
2010,01,19,11,20,30.60
2010,01,19,11,21,25.70
2010,01,19,11,22,25.70
2010,01,19,11,23,33.80
2010,01,19,11,24,19.30
2010,01,19,11,25,20.90
2010,01,19,11,26,25.70
2010,01,19,11,27,32.20
2010,01,19,11,28,29.00
2010,01,19,11,29,24.20
2010,01,19,11,30,25.70
2010,01,19,11,31,24.20
2010,01,19,11,32,25.70
2010,01,19,11,33,37.00
2010,01,19,11,34,24.20
2010,01,19,11,35,17.70
2010,01,19,11,36,30.60
2010,01,19,11,37,30.60
2010,01,19,11,38,27.40
2010,01,19,11,39,33.80
2010,01,19,11,40,32.20
2010,01,19,11,41,30.60
2010,01,19,11,42,22.50
2010,01,19,11,43,25.70
2010,01,19,11,44,32.20
2010,01,19,11,45,22.50
2010,01,19,11,46,29.00
2010,01,19,11,47,30.60
2010,01,19,11,48,30.60
2010,01,19,11,49,25.70
2010,01,19,11,50,24.20
2010,01,19,11,51,29.00
2010,01,19,11,52,29.00
2010,01,19,11,53,22.50
2010,01,19,11,54,17.70
2010,01,19,11,55,17.70
2010,01,19,11,56,19.30
2010,01,19,11,57,14.50
2010,01,19,11,58,16.10
2010,01,19,11,59,17.70
2010,01,19,12,00,20.90
2010,01,19,12,01,11.30
2010,01,19,12,02,9.60
2010,01,19,12,03,16.10
2010,01,19,12,04,11.30
2010,01,19,12,05,12.90
2010,01,19,12,06,14.50
2010,01,19,12,07,9.60
2010,01,19,12,08,9.60
2010,01,19,12,09,20.90
2010,01,19,12,10,14.50
2010,01,19,12,11,9.60
2010,01,19,12,12,12.90
2010,01,19,12,13,16.10
2010,01,19,12,14,20.90
2010,01,19,12,15,32.20
2010,01,19,12,16,35.40
2010,01,19,12,17,9.60
2010,01,19,12,18,19.30
2010,01,19,12,19,20.90
2010,01,19,12,20,11.30
2010,01,19,12,21,19.30
2010,01,19,12,22,19.30
2010,01,19,12,23,16.10
2010,01,19,12,24,12.90
2010,01,19,12,25,20.90
2010,01,19,12,26,27.40
2010,01,19,12,27,20.90
2010,01,19,12,28,24.20
2010,01,19,12,29,14.50
2010,01,19,12,30,20.90
2010,01,19,12,31,14.50
2010,01,19,12,32,11.30
2010,01,19,12,33,17.70
2010,01,19,12,34,17.70
2010,01,19,12,35,17.70
2010,01,19,12,36,11.30
2010,01,19,12,37,16.10
2010,01,19,12,38,20.90
2010,01,19,12,39,20.90
2010,01,19,12,40,17.70
2010,01,19,12,41,16.10
2010,01,19,12,42,16.10
2010,01,19,12,43,9.60
2010,01,19,12,44,9.60
2010,01,19,12,45,6.40
2010,01,19,12,46,6.40
2010,01,19,12,47,9.60
2010,01,19,12,48,16.10
2010,01,19,12,49,22.50
2010,01,19,12,50,6.40
2010,01,19,12,51,9.60
2010,01,19,12,52,11.30
2010,01,19,12,53,8.10
2010,01,19,12,54,9.60
2010,01,19,12,55,12.90
2010,01,19,12,56,14.50
2010,01,19,12,57,11.30
2010,01,19,12,58,14.50
2010,01,19,12,59,16.10
2010,01,19,13,00,8.10
2010,01,19,13,01,20.90
2010,01,19,13,02,14.50
2010,01,19,13,03,11.30
2010,01,19,13,04,9.60
2010,01,19,13,05,4.80
2010,01,19,13,06,9.60
2010,01,19,13,07,14.50
2010,01,19,13,08,9.60
2010,01,19,13,09,9.60
2010,01,19,13,10,11.30
2010,01,19,13,11,11.30
2010,01,19,13,12,11.30
2010,01,19,13,13,6.40
2010,01,19,13,14,9.60
2010,01,19,13,15,11.30
2010,01,19,13,16,4.80
2010,01,19,13,17,4.80
2010,01,19,13,18,4.80
2010,01,19,13,19,17.70
2010,01,19,13,20,11.30
2010,01,19,13,21,8.10
2010,01,19,13,22,6.40
2010,01,19,13,23,9.60
2010,01,19,13,24,9.60
2010,01,19,13,25,9.60
2010,01,19,13,26,11.30
2010,01,19,13,27,16.10
2010,01,19,13,28,16.10
2010,01,19,13,29,9.60
2010,01,19,13,30,6.40
2010,01,19,13,31,8.10
2010,01,19,13,32,6.40
2010,01,19,13,33,11.30
2010,01,19,13,34,11.30
2010,01,19,13,35,6.40
2010,01,19,13,36,8.10
2010,01,19,13,37,9.60
2010,01,19,13,38,9.60
2010,01,19,13,39,16.10
2010,01,19,13,40,6.40
2010,01,19,13,41,3.20
2010,01,19,13,42,9.60
2010,01,19,13,43,14.50
2010,01,19,13,44,4.80
2010,01,19,13,45,9.60
2010,01,19,13,46,6.40
2010,01,19,13,47,4.80
2010,01,19,13,48,4.80
2010,01,19,13,49,3.20
2010,01,19,13,50,8.10
2010,01,19,13,51,6.40
2010,01,19,13,52,4.80
2010,01,19,13,53,6.40
2010,01,19,13,54,3.20
2010,01,19,13,55,8.10
2010,01,19,13,56,9.60
2010,01,19,13,57,3.20
2010,01,19,13,58,3.20
2010,01,19,13,59,6.40
2010,01,19,14,00,8.10
2010,01,19,14,01,6.40
2010,01,19,14,02,6.40
2010,01,19,14,03,6.40
2010,01,19,14,04,3.20
2010,01,19,14,05,4.80
2010,01,19,14,06,8.10
2010,01,19,14,07,6.40
2010,01,19,14,08,9.60
2010,01,19,14,09,6.40
2010,01,19,14,10,8.10
2010,01,19,14,11,6.40
2010,01,19,14,12,9.60
2010,01,19,14,13,14.50
2010,01,19,14,14,6.40
2010,01,19,14,15,9.60
2010,01,19,14,16,6.40
2010,01,19,14,17,9.60
2010,01,19,14,18,6.40
2010,01,19,14,19,9.60
2010,01,19,14,20,11.30
2010,01,19,14,21,8.10
2010,01,19,14,22,6.40
2010,01,19,14,23,6.40
2010,01,19,14,24,9.60
2010,01,19,14,25,8.10
2010,01,19,14,26,6.40
2010,01,19,14,27,16.10
2010,01,19,14,28,9.60
2010,01,19,14,29,9.60
2010,01,19,14,30,11.30
2010,01,19,14,31,8.10
2010,01,19,14,32,14.50
2010,01,19,14,33,11.30
2010,01,19,14,34,9.60
2010,01,19,14,35,8.10
2010,01,19,14,36,11.30
2010,01,19,14,37,11.30
2010,01,19,14,38,9.60
2010,01,19,14,39,9.60
2010,01,19,14,40,6.40
2010,01,19,14,41,9.60
2010,01,19,14,42,8.10
2010,01,19,14,43,6.40
2010,01,19,14,44,6.40
2010,01,19,14,45,9.60
2010,01,19,14,46,4.80
2010,01,19,14,47,6.40
2010,01,19,14,48,8.10
2010,01,19,14,49,6.40
2010,01,19,14,50,3.20
2010,01,19,14,51,8.10
2010,01,19,14,52,4.80
2010,01,19,14,53,3.20
2010,01,19,14,54,8.10
2010,01,19,14,55,16.10
2010,01,19,14,56,6.40
2010,01,19,14,57,4.80
2010,01,19,14,58,6.40
2010,01,19,14,59,6.40
2010,01,19,15,00,6.40
2010,01,19,15,01,8.10
2010,01,19,15,02,4.80
2010,01,19,15,03,16.10
2010,01,19,15,04,17.70
2010,01,19,15,05,17.70
2010,01,19,15,06,14.50
2010,01,19,15,07,9.60
2010,01,19,15,08,11.30
2010,01,19,15,09,9.60
2010,01,19,15,10,11.30
2010,01,19,15,11,9.60
2010,01,19,15,12,16.10
2010,01,19,15,13,9.60
2010,01,19,15,14,14.50
2010,01,19,15,15,19.30
2010,01,19,15,16,16.10
2010,01,19,15,17,14.50
2010,01,19,15,18,17.70
2010,01,19,15,19,12.90
2010,01,19,15,20,16.10
2010,01,19,15,21,9.60
2010,01,19,15,22,9.60
2010,01,19,15,23,11.30
2010,01,19,15,24,20.90
2010,01,19,15,25,11.30
2010,01,19,15,26,9.60
2010,01,19,15,27,11.30
2010,01,19,15,28,8.10
2010,01,19,15,29,16.10
2010,01,19,15,30,12.90
2010,01,19,15,31,8.10
2010,01,19,15,32,6.40
2010,01,19,15,33,9.60
2010,01,19,15,34,16.10
2010,01,19,15,35,11.30
2010,01,19,15,36,12.90
2010,01,19,15,37,9.60
2010,01,19,15,38,8.10
2010,01,19,15,39,9.60
2010,01,19,15,40,12.90
2010,01,19,15,41,9.60
2010,01,19,15,42,14.50
2010,01,19,15,43,14.50
2010,01,19,15,44,8.10
2010,01,19,15,45,14.50
2010,01,19,15,46,17.70
2010,01,19,15,47,14.50
2010,01,19,15,48,6.40
2010,01,19,15,49,8.10
2010,01,19,15,50,11.30
2010,01,19,15,51,14.50
2010,01,19,15,52,20.90
2010,01,19,15,53,9.60
2010,01,19,15,54,14.50
2010,01,19,15,55,17.70
2010,01,19,15,56,17.70
2010,01,19,15,57,8.10
2010,01,19,15,58,9.60
2010,01,19,15,59,14.50
2010,01,19,16,00,9.60
2010,01,19,16,01,17.70
2010,01,19,16,02,9.60
2010,01,19,16,03,9.60
2010,01,19,16,04,11.30
2010,01,19,16,05,19.30
2010,01,19,16,06,9.60
2010,01,19,16,07,11.30
2010,01,19,16,08,9.60
2010,01,19,16,09,8.10
2010,01,19,16,10,4.80
2010,01,19,16,11,8.10
2010,01,19,16,12,11.30
2010,01,19,16,13,4.80
2010,01,19,16,14,17.70
2010,01,19,16,15,17.70
2010,01,19,16,16,8.10
2010,01,19,16,17,6.40
2010,01,19,16,18,6.40
2010,01,19,16,19,9.60
2010,01,19,16,20,14.50
2010,01,19,16,21,11.30
2010,01,19,16,22,12.90
2010,01,19,16,23,20.90
2010,01,19,16,24,14.50
2010,01,19,16,25,9.60
2010,01,19,16,26,16.10
2010,01,19,16,27,14.50
2010,01,19,16,28,11.30
2010,01,19,16,29,11.30
2010,01,19,16,30,9.60
2010,01,19,16,31,6.40
2010,01,19,16,32,11.30
2010,01,19,16,33,16.10
2010,01,19,16,34,3.20
2010,01,19,16,35,8.10
2010,01,19,16,36,4.80
2010,01,19,16,37,8.10
2010,01,19,16,38,4.80
2010,01,19,16,39,8.10
2010,01,19,16,40,6.40
2010,01,19,16,41,4.80
2010,01,19,16,42,6.40
2010,01,19,16,43,1.60
2010,01,19,16,44,8.10
2010,01,19,16,45,9.60
2010,01,19,16,46,6.40
2010,01,19,16,47,6.40
2010,01,19,16,48,12.90
2010,01,19,16,49,3.20
2010,01,19,16,50,1.60
2010,01,19,16,51,0.00
2010,01,19,16,52,8.10
2010,01,19,16,53,12.90
2010,01,19,16,54,8.10
2010,01,19,16,55,11.30
2010,01,19,16,56,20.90
2010,01,19,16,57,24.20
2010,01,19,16,58,14.50
2010,01,19,16,59,6.40
2010,01,19,17,00,9.60
2010,01,19,17,01,20.90
2010,01,19,17,02,6.40
2010,01,19,17,03,9.60
2010,01,19,17,04,9.60
2010,01,19,17,05,17.70
2010,01,19,17,06,14.50
2010,01,19,17,07,11.30
2010,01,19,17,08,8.10
2010,01,19,17,09,9.60
2010,01,19,17,10,8.10
2010,01,19,17,11,9.60
2010,01,19,17,12,6.40
2010,01,19,17,13,11.30
2010,01,19,17,14,9.60
2010,01,19,17,15,8.10
2010,01,19,17,16,3.20
2010,01,19,17,17,6.40
2010,01,19,17,18,4.80
2010,01,19,17,19,6.40
2010,01,19,17,20,8.10
2010,01,19,17,21,14.50
2010,01,19,17,22,11.30
2010,01,19,17,23,9.60
2010,01,19,17,24,9.60
2010,01,19,17,25,12.90
2010,01,19,17,26,14.50
2010,01,19,17,27,8.10
2010,01,19,17,28,17.70
2010,01,19,17,29,16.10
2010,01,19,17,30,11.30
2010,01,19,17,31,14.50
2010,01,19,17,32,12.90
2010,01,19,17,33,16.10
2010,01,19,17,34,8.10
2010,01,19,17,35,11.30
2010,01,19,17,36,16.10
2010,01,19,17,37,17.70